GSAT-2

operational
NORAD ID: 27807 Int'l Des: 2003-018 Owner: ISRO Country: IN
HEOCIRCULAR

GSAT-2について

説明を読み込み中...

リアルタイム位置

3D地球を読み込み中...

次回通過

高度履歴

Altitude vs Time

uPlot chart will show altitude changes over time

軌道要素

1 27807U 03018A 26062.49740799 -.00000216 00000-0 00000+0 0 9990
2 27807 10.9709 42.5933 0011488 334.5784 60.0648 0.99842674 83389
Epoch: Mar 3, 2026 • Age: 37 hours

現在のステータス

高度 35892.3 km
速度 3.07 km/s
衛星直下点 8.08°N, 94.91°E
打ち上げ日 May 8, 2003
運用期間 22.8 years
タイプ other

技術仕様

分類 Payload
質量 1800.00 kg
乾燥質量 840.00 kg
総質量 1800.00 kg
長さ 2.40 m
直径 1.60 m
スパン 9.60 m
形状 Box + 2 Pan
製造者 ISRO
バスタイプ I2K
フェーズステータス In Orbit
所有者/国 ISRO/IN

大規模コンステレーション

Loading constellations...